Find Cartosat-3

NORAD ID: 44804 Int'l Des: 2019-081 Owner: ISRO Country: IN operational
LEOCIRCULARRETROGRADESSO

Live Position

Loading 3D Globe...

About Cartosat-3

Description loading...

Upcoming Passes

Passes for default location (London). Set your location on the main map for personalized predictions.

Altitude History

Loading altitude history...

Two-Line Element Set

1 44804U 19081A 26106.96997863 .00002102 00000-0 10287-3 0 9997
2 44804 97.4360 169.8032 0012198 11.8812 348.2708 15.19229110354175
Epoch: Apr 16, 2026 • Age: 5 hours

Current Status

Altitude 502.7 km
Velocity 7.62 km/s
Sub-Earth Point 2.22°N, 96.07°W
Launch Date Nov 27, 2019
Age 6.3 years
Type other

Technical Details

Classification Payload
Mass 1625.00 kg
Dry Mass 1500.00 kg
Total Mass 1625.00 kg
Length 3.50 m
Diameter 2.00 m
Span 8.00 m
Shape Hex Cyl + 2 Pan
Manufacturer ISRO
Bus Type IRS-2
Phase Status In Orbit
Owner/State ISRO/IN

Most Searched